sat.trackr.live / text

‹ back to catalog

STARLINK-31667

NORAD 59609 · 2024-080J

PAYLOAD ACTIVE UNKNOWN

§ Identity

Operator
Country
US
Launch date
2024-04-28
Launch site
AFETR
Launch vehicle
Mass (kg)
RCS (m²)

Purposes: comms

External: N2YO · Heavens-Above · Gunter

§ Orbital elements

Epoch: 2026-09-21T08:44:58.054848Z

Period
94.27 min
Inclination
43.0030°
Eccentricity
0.0001425
Mean motion
15.27575832 rev/d
Perigee alt
482.1 km
Apogee alt
484.0 km
Semi-major
6,861.2 km
B*
3.5838e-5
RAAN
8.9370°
Arg perigee
268.6286°
Mean anomaly
91.4402°
Rev number
13,450

§ Raw data

STARLINK-316671 59609U 24080J   26264.36456082  .00000724  00000+0  35838-4 0  99902 59609  43.0030   8.9370 0001425 268.6286  91.4402 15.27575832134506

JSON: /api/v1/satellites/59609 · /tle

For live sub-satellite position, see the globe view (requires WebGL).

§ Visibility from observer

Set your observer location to see the next 7 days of passes ≥ 10°. The values pass through the URL so the page stays shareable.

No JS? Fill the form by hand. The geolocation button needs JavaScript.